Regional Weather Roundup
Issued by NWS Huntsville, AL

Home | Current Version | Previous Version | Text Only | Print | Product List | Glossary On
Versions: 1 2 3 4 5 6 7 8 9 10 11 12 13 14 15 16 17 18 19 20 21 22 23 24 25 26 27 28 29 30 31 32 33 34 35 36 37 38 39 40 41 42 43 44 45 46 47 48 49 50
000
ASUS44 KHUN 311510
RWRHUN

WEATHER ROUNDUP FOR THE TENNESSEE VALLEY
NATIONAL WEATHER SERVICE HUNTSVILLE AL
900 AM CST SAT JAN 31 2015

ALZ001>004-311600-
NORTHWEST ALABAMA

CITY           SKY/WX    TMP DP  RH WIND       PRES   REMARKS
COURTLAND HCN    N/A     34 N/A N/A CALM        N/A
RUSSELLVILLE     N/A     34 N/A N/A MISG        N/A
SHOALS AIRPORT PTSUNNY   37  24  59 SE3       30.42R
SHOALS TVA RES   N/A     36 N/A N/A MISG        N/A
$$

ALZ005>007-016-311600-
NORTH CENTRAL ALABAMA

CITY           SKY/WX    TMP DP  RH WIND       PRES   REMARKS
CULLMAN AG STN   N/A     36 N/A N/A NE3         N/A
DECATUR AP     PTSUNNY   36  25  64 CALM      30.41R
HUNTSVILLE AP  PTSUNNY   38  27  64 CALM      30.40R
HUN NWS/UAH      N/A     37  21  52 CALM        N/A
MERIDIANVILLE  CLOUDY    32  23  69 CALM      30.40S
REDSTONE ARSN  CLOUDY    36  25  64 VRB2      30.39R
$$

ALZ008>010-311600-
NORTHEAST ALABAMA

CITY           SKY/WX    TMP DP  RH WIND       PRES   REMARKS
ALBERTVILLE    PTSUNNY   34  28  80 E3        30.37R
FORT PAYNE     MOSUNNY   32  19  59 CALM      30.38R
SCOTTSBORO AP  MOSUNNY   36  21  55 NE6       30.41F WCI  31
VALLEY HEAD      N/A     32 N/A N/A MISG        N/A
$$

TNZ076-096-097-311600-
SOUTHEASTERN MIDDLE TENNESSEE

CITY           SKY/WX    TMP DP  RH WIND       PRES   REMARKS
TULLAHOMA      SUNNY     30  25  80 CALM      30.39R
WINCHESTER     SUNNY     32  27  80 W3        30.39R
$$

...SURROUNDING SITES...

CITY           SKY/WX    TMP DP  RH WIND       PRES   REMARKS
ATLANTA        MOSUNNY   41  19  41 CALM      30.38R
ANNISTON       PTSUNNY   39  23  52 NE5       30.40R
BIRMINGHAM     PTSUNNY   41  18  39 E8        30.40S
CHATTANOOGA    PTSUNNY   36  20  52 NE9       30.42R WCI  29
CORINTH        FAIR      37  28  70 SE5       30.39S WCI  34
DALTON         MOSUNNY   34  23  64 CALM      30.40R
GADSDEN        PTSUNNY   34  23  64 CALM      30.41R
GOLDEN TRNGL   PTSUNNY   37  25  60 CALM      30.38S
HALEYVILLE       N/A     35  23  62 CALM      30.41R
JACKSON TN     CLOUDY    35  25  66 SE3       30.40R
LEWISBURG      FAIR      30  23  75 CALM      30.40R
MEMPHIS        CLOUDY    41  22  46 SE5       30.38R
MURFREESBORO   FAIR      30  23  75 SW3       30.40
NASHVILLE      CLOUDY    32  25  75 S3        30.41R
OXFORD MS      FAIR      37  23  56 SE5       30.39F WCI  34
ROME           MOSUNNY   38  21  50 NE6       30.39R WCI  33
SAVANNAH       SUNNY     34  27  75 CALM      30.40S
TUPELO         PTSUNNY   37  26  64 E3        30.40R
TUSCALOOSA     MOSUNNY   40  24  53 CALM      30.40S
$$

...GULF COAST WEATHER...

CITY           SKY/WX    TMP DP  RH WIND       PRES   REMARKS
GULFPORT       SUNNY     45  29  53 E8        30.35R
PASCAGOULA     SUNNY     45  31  58 E7        30.35R
MOBILE         PTSUNNY   44  26  49 E12       30.35R
GULF SHORES    SUNNY     47  32  55 E12       30.34R
PENSACOLA      MOSUNNY   48  32  53 E12       30.34R
DESTIN         SUNNY     46  30  53 E12       30.34R
PANAMA CITY    SUNNY     46  30  52 E8        30.34S
APPALACHICOLA  SUNNY     50  32  50 NE13      30.33R
$$




USA.gov is the U.S. government's official web portal to all federal, state and local government web resources and services.